This demonstration page uses our WeatherBlox Daily Observations layout. Learn more.

Left ArrowRight Arrow

32.84923, -109.75925

Hourly Observations for August 18, 2022

Temp ( °F °C ) Dew Point ( °F °C ) Humidity (%) Winds ( mph kmh ) Pressure ( in mb ) Visibility ( mi km ) Precip ( " mm )
12:51 am 00:51 Mostly Cloudy 74 23.3 66 18.9 76 76 ENE 5 7 29.87 1012 10 16 0.00 0.00
1:51 am 01:51 Clear 74 23.3 67 19.4 79 79 Calm 29.85 1011 10 16 0.00 0.00
2:51 am 02:51 Cloudy 74 23.3 67 19.4 79 79 Calm 29.85 1011 10 16 0.00 0.00
3:51 am 03:51 Cloudy 75 23.9 67 19.4 76 76 Calm 29.85 1011 10 16 0.00 0.00
4:51 am 04:51 Cloudy 74 23.3 68 20 82 82 ESE 3 6 29.86 1011 10 16 0.00 0.00
5:51 am 05:51 Cloudy 75 23.9 67 19.4 76 76 Calm 29.87 1011 10 16 0.00 0.00
6:51 am 06:51 Cloudy 75 23.9 67 19.4 76 76 SE 10 17 29.88 1012 10 16 0.00 0.00
7:51 am 07:51 Cloudy 77 25 66 18.9 69 69 SSE 9 15 29.90 1012 10 16 0.00 0.00
8:51 am 08:51 Mostly Cloudy 78 25.6 66 18.9 67 67 SE 7 11 29.89 1012 10 16 0.00 0.00
9:51 am 09:51 Mostly Sunny 83 28.3 66 18.9 57 57 SSE 8 13 29.88 1012 10 16 0.00 0.00
10:51 am 10:51 Sunny 86 30 65 18.3 50 50 SE 9 15 29.86 1011 10 16 0.00 0.00
11:51 am 11:51 Sunny 89 31.7 64 17.8 44 44 SSE 15 24 29.84 1011 10 16 0.00 0.00
12:51 pm 12:51 Mostly Cloudy 90 32.2 64 17.8 42 42 SSE 13 20 29.82 1010 10 16 0.00 0.00
1:51 pm 13:51 Sunny 90 32.2 61 16.1 38 38 SE 10 17 29.79 1009 10 16 0.00 0.00
2:51 pm 14:51 Sunny 91 32.8 62 16.7 38 38 SSE 14 22 29.76 1008 10 16 0.00 0.00
3:51 pm 15:51 Sunny 91 32.8 63 17.2 39 39 S 16 26 29.72 1007 10 16 0.00 0.00
4:42 pm 16:42 Mostly Cloudy with Nearby Thunderstorms 91 32.8 60 15.6 36 36 SE 12 19 29.63 1003 10 16 0.00 0.00
4:51 pm 16:51 Cloudy with Nearby Thunderstorms 90 32.2 60 15.6 37 37 ESE 12 19 29.74 1007 10 16 0.00 0.00
5:23 pm 17:23 Mostly Cloudy 81 27.2 67 19.4 62 62 NNW 9 15 29.70 1006 10 16 0.00 0.00
5:51 pm 17:51 Mostly Cloudy 84 28.9 67 19.4 57 57 NNW 6 9 29.74 1007 10 16 0.00 0.00
6:51 pm 18:51 Partly Cloudy with Nearby Thunderstorms 78 25.6 71 21.7 79 79 NNE 5 7 29.77 1008 10 16 0.04 1.02
7:12 pm 19:12 Mostly Clear 81 27.2 69 20.6 67 67 NE 3 6 29.72 1006 10 16 0.00 0.00
7:51 pm 19:51 Clear 78 25.6 73 22.8 85 85 ENE 5 7 29.79 1009 10 16 0.00 0.00
8:51 pm 20:51 Partly Cloudy 79 26.1 69 20.6 72 72 E 5 7 29.82 1010 10 16 0.00 0.00
9:51 pm 21:51 Mostly Cloudy 79 26.1 69 20.6 72 72 VRB 6 9 29.81 1010 10 16 0.00 0.00
10:51 pm 22:51 Partly Cloudy 80 26.7 66 18.9 62 62 ESE 8 13 29.81 1009 10 16 0.00 0.00
11:51 pm 23:51 Mostly Clear 76 24.4 69 20.6 79 79 Calm 29.80 1009 10 16 0.00 0.00

Powered by AerisWeather